Location: Wapato
(46.4478°N, 120.4212°W)
Time: 13:59:39
(UTC+00:00)

Explorer 7 - Pass Details

Date: 14 May 2026
Orbit: 426 x 534 km, 50.2° (Epoch: 8 June)

Event Time Altitude Azimuth Distance (km) Brightness Sun altitude
Rises 16:22:21 0° 281° (WNW) 2,514 9.7 38.1°
Reaches altitude 10° 16:24:32 10° 288° (WNW) 1,657 8.9 38.5°
Maximum altitude 16:28:10 46° 3° (N) 672 7.6 39.1°
Drops below altitude 10° 16:31:57 10° 78° (ENE) 1,721 10.3 39.7°
Sets 16:34:15 0° 84° (E) 2,624 11.1 40.1°
